Dewpoint
65 68 71 70 68 69 69 68 69 69 69 69 70 69 69 70 70 69 68 67 69 66 66 66 66 66 67 67 69 70 70 69 69 70 71 72 72 70 70 71 71 71 72
65 67 71 70 69 69 69 69 69 69 70 70 70 70 70 69 70 70 69 68 67 67 66 65 66 66 66 66 67 68 68 68 69 70 69 69 70 71 69 70 70 70 71
64 64 66 71 70 70 69 69 68 67 68 69 69 69 69 67 68 70 67 67 66 66 66 65 66 67 67 67 67 66 66 66 68 68 69 67 68 70 69 71 70 69 71
63 64 65 70 70 69 69 69 69 69 68 67 67 68 68 67 66 67 67 67 67 67 67 67 67 67 66 68 68 66 65 65 67 67 64 65 64 69 68 69 68 68 69
63 66 68 70 69 69 69 69 68 68 67 68 68 68 67 67 69 69 68 68 68 67 66 66 66 66 66 67 68 67 66 67 68 65 61 64 65 67 69 68 68 68 69
63 64 67 69 68 68 67 67 68 68 67 68 68 68 68 67 67 70 69 68 68 67 65 65 65 65 65 66 65 65 65 65 65 59 59 66 66 67 68 68 69 69 69
63 62 66 68 68 68 67 67 65 66 67 67 67 66 66 66 67 69 68 68 67 66 64 64 64 64 64 64 63 62 63 63 57 58 62 63 65 68 67 68 69 68 68
64 63 61 64 66 68 68 68 68 67 67 67 67 66 65 65 67 68 68 68 67 66 66 65 64 64 63 62 62 61 62 62 56 55 61 63 67 68 66 67 68 68 68
63 62 62 62 64 66 67 67 67 67 67 67 67 66 66 66 68 68 68 68 67 67 67 66 65 65 65 64 63 62 62 62 57 53 59 63 66 67 67 66 66 66 66
63 61 61 61 61 63 63 66 66 66 66 67 67 67 66 65 66 67 68 68 68 67 67 68 67 65 66 66 66 65 63 63 54 55 60 62 66 63 66 66 67 66 65
61 61 62 61 61 62 63 63 65 66 65 65 65 65 66 66 65 65 65 67 67 66 67 67 67 67 67 67 67 66 65 62 59 55 60 65 64 63 62 66 65 65 66
60 60 61 60 60 62 62 62 64 64 65 64 65 65 65 65 64 64 62 64 65 66 66 66 66 66 66 66 65 65 63 64 64 59 63 66 63 63 63 62 63 64 65
59 58 58 60 59 60 62 62 63 62 63 63 63 64 64 64 64 65 64 64 64 64 65 65 65 65 64 64 64 64 64 64 64 65 64 65 65 63 64 64 63 64 64
58 58 55 55 57 57 61 61 61 61 63 62 63 63 63 63 64 63 64 63 63 63 62 63 61 61 60 57 55 54 55 57 57 64 63 64 64 63 63 64 64 64 64
56 54 53 52 56 54 54 55 55 56 57 58 59 59 63 63 62 62 62 62 61 61 61 60 57 56 52 52 52 50 51 51 51 54 62 62 64 64 64 63 63 64 64
53 52 50 51 53 52 52 52 53 53 53 54 54 54 56 58 57 58 57 56 55 54 55 55 54 53 52 52 51 51 50 51 52 52 53 59 62 63 63 64 65 64 64
51 49 49 51 51 50 50 50 51 50 52 52 51 51 52 53 54 56 55 54 53 53 52 51 50 50 49 48 47 48 48 47 47 48 52 52 57 60 61 61 62 62 63
48 47 47 48 50 49 49 49 49 49 48 48 49 49 49 49 51 51 51 51 51 51 51 51 51 50 48 48 47 47 47 47 46 45 47 47 50 55 59 58 57 56 57
46 46 45 48 49 49 48 49 49 48 47 47 47 49 48 48 47 48 49 50 50 49 50 49 49 49 48 47 45 43 46 46 45 46 47 49 50 51 54 57 57 56 56
45 45 45 48 48 48 49 48 49 47 47 47 46 46 46 47 47 47 48 47 48 48 47 48 47 48 47 46 45 45 47 48 49 50 51 52 50 50 51 52 54 55 57
45 45 46 46 47 48 48 47 46 46 46 47 47 46 46 47 47 46 46 46 46 45 44 43 46 46 45 46 46 46 47 46 49 48 48 50 52 52 51 50 50 50 55
46 46 45 46 47 47 47 47 46 46 46 47 47 46 46 46 46 45 46 46 46 45 45 44 44 44 44 46 45 44 44 46 46 47 47 47 49 49 49 49 49 48 49
46 47 45 46 46 46 47 47 46 46 46 45 46 46 45 46 46 46 46 46 45 46 45 45 45 43 43 44 43 44 42 41 41 44 46 46 44 45 44 45 48 48 47
47 48 46 46 46 46 47 46 45 45 44 45 45 46 45 45 45 45 45 45 45 46 45 43 44 44 44 42 43 43 43 42 41 40 44 44 41 41 41 43 44 47 48
48 48 47 46 46 46 46 46 46 44 44 45 46 45 45 45 44 44 44 44 44 45 44 43 44 44 44 43 43 43 42 43 42 41 39 40 40 40 42 43 43 44 47
48 48 47 46 46 46 46 45 45 44 44 44 44 44 45 45 44 44 44 43 43 43 43 43 43 43 43 43 43 43 43 41 39 39 38 37 38 39 40 41 42 44 48
Lifted_Index
-3 -3 -4 -4 -4 -4 -4 -5 -5 -6 -6 -5 -5 -5 -5 -5 -4 -4 -3 -2 -2 -1 -1 -1 -1 -1 -1 -1 -1 -2 -2 -2 -2 -2 -2 -3 -3 -3 -3 -3 -3 -4 -5
-3 -3 -4 -4 -4 -4 -5 -5 -6 -6 -6 -6 -6 -5 -5 -4 -4 -4 -3 -2 -2 -1 -1 -1 -1 -1 -1 -1 -1 -1 -1 -1 -1 -1 -2 -2 -2 -3 -3 -3 -3 -4 -4
-3 -3 -3 -4 -4 -4 -5 -6 -6 -6 -6 -6 -6 -6 -5 -4 -4 -4 -3 -3 -2 -2 -1 -1 -1 -1 -1 -1 -1 -1 -0 -0 -1 -1 -1 -1 -2 -2 -2 -2 -3 -3 -3
-3 -3 -3 -3 -4 -4 -5 -6 -6 -6 -6 -6 -6 -6 -5 -4 -4 -4 -3 -3 -3 -2 -2 -2 -2 -1 -1 -2 -1 -1 -0 0 -0 -0 -1 -1 -1 -2 -2 -2 -2 -2 -3
-2 -2 -3 -3 -3 -3 -4 -5 -6 -6 -6 -6 -5 -5 -5 -5 -5 -5 -4 -4 -3 -2 -2 -2 -2 -2 -1 -2 -2 -1 -0 0 0 0 -0 -1 -1 -2 -2 -2 -2 -2 -2
-1 -1 -2 -2 -3 -2 -3 -4 -5 -6 -5 -5 -5 -5 -5 -4 -5 -5 -5 -4 -3 -2 -2 -2 -2 -2 -1 -1 -1 -0 0 0 1 1 0 -1 -1 -2 -2 -2 -2 -2 -2
-0 -0 -1 -1 -2 -2 -2 -3 -4 -4 -5 -5 -5 -4 -4 -4 -4 -5 -4 -4 -3 -3 -2 -2 -1 -1 -1 -1 0 1 2 2 2 1 1 -0 -1 -2 -2 -2 -2 -2 -2
0 0 1 0 -1 -1 -2 -2 -2 -3 -3 -4 -4 -3 -3 -3 -4 -4 -4 -4 -4 -3 -3 -2 -2 -1 -1 -0 0 2 3 3 3 2 1 0 -1 -2 -2 -2 -2 -2 -2
0 1 1 1 1 -0 -1 -1 -2 -2 -2 -2 -2 -2 -2 -2 -3 -4 -4 -4 -4 -4 -3 -3 -3 -2 -2 -1 0 1 3 3 3 2 1 0 -1 -2 -2 -2 -2 -2 -2
1 1 1 2 1 0 -0 -0 -1 -1 -0 -0 -1 -1 -1 -2 -2 -3 -3 -4 -3 -3 -3 -3 -3 -3 -2 -2 -1 0 1 2 2 2 1 0 -0 -1 -1 -2 -2 -2 -2
1 1 2 2 1 1 1 0 0 -0 0 0 0 -0 -1 -1 -1 -2 -2 -3 -3 -3 -3 -3 -3 -3 -3 -3 -2 -1 -0 0 0 1 1 0 -0 -1 -1 -1 -1 -2 -2
2 2 2 2 2 1 1 1 0 0 0 0 1 1 0 -0 -0 -1 -1 -2 -2 -2 -2 -2 -2 -2 -3 -3 -3 -2 -2 -1 -1 -0 0 -0 -1 -1 -1 -1 -1 -1 -1
2 2 2 3 2 2 2 2 1 1 0 0 1 1 0 0 0 -0 -1 -1 -1 -1 -1 -1 -1 -1 -2 -2 -2 -2 -2 -2 -1 -1 -1 -1 -1 -2 -2 -2 -1 -1 -1
3 3 3 3 3 3 3 3 2 1 1 1 1 0 0 0 0 -0 -0 -0 -0 -0 -0 -0 -0 -0 -1 -1 -1 -1 -1 -1 -1 -1 -1 -1 -1 -2 -2 -2 -2 -2 -2
4 4 4 4 5 5 5 4 3 3 2 2 1 1 0 0 0 0 -0 -0 -0 -0 0 0 0 1 1 1 2 2 2 1 1 0 0 -0 -1 -1 -2 -2 -2 -2 -2
5 5 6 6 6 7 7 6 6 5 4 4 3 2 1 1 1 0 0 0 0 1 1 1 2 2 3 3 4 4 4 3 3 3 2 2 1 0 -1 -2 -2 -2 -2
6 7 7 7 7 8 8 8 8 7 6 5 4 3 2 1 1 1 1 1 2 2 3 4 4 4 5 5 5 5 5 5 5 5 5 4 3 2 1 -0 -1 -1 -1
7 7 8 8 8 8 9 9 9 8 7 7 6 5 4 3 3 3 3 3 4 5 5 6 6 6 6 6 6 6 6 6 6 6 6 5 5 3 3 2 1 1 1
7 8 8 9 8 8 9 9 8 8 8 7 7 7 6 6 5 5 5 5 6 6 6 6 6 6 6 6 7 6 6 6 6 6 5 5 5 4 4 3 3 3 3
7 8 8 9 9 9 9 9 8 8 8 8 8 8 7 7 7 7 6 6 6 6 7 7 7 7 7 7 7 7 6 5 5 5 4 4 4 4 4 3 3 3 3
7 8 8 8 9 9 9 9 8 8 8 8 8 8 8 7 7 7 7 6 6 6 7 7 7 7 7 7 7 6 5 5 4 4 4 4 4 4 4 4 4 3 3
8 8 8 8 8 9 9 9 8 8 8 8 8 8 8 7 7 7 7 6 6 7 7 7 7 7 7 7 7 6 5 5 5 5 5 4 4 4 5 5 5 5 5
7 7 7 7 8 8 8 8 8 8 8 8 8 8 8 8 7 7 7 7 6 7 7 7 7 7 7 7 7 6 5 5 5 5 5 5 5 6 6 6 6 6 6
7 7 7 7 7 7 8 8 8 8 7 7 7 8 8 8 7 7 7 7 7 7 7 7 7 7 7 7 7 7 6 6 6 6 6 6 6 7 7 7 7 7 6
6 6 6 6 6 7 7 7 7 7 6 7 7 7 7 7 7 7 7 7 7 7 7 7 7 7 7 7 7 7 7 7 7 7 7 7 7 7 8 8 8 7 7
6 6 6 6 6 6 7 7 6 6 6 6 7 7 7 7 7 7 7 7 7 7 7 7 7 7 7 7 8 8 8 8 8 8 8 8 8 8 8 8 8 7 7